Weather History for KSHN - March, 2013

Change the Weather History Date:

Sunday, March 24, 2013

  Actual Average Record
Temperature  
Mean Temperature 42 °F -  
Max Temperature 54 °F 54 °F 70 °F (1960)
Min Temperature 30 °F 35 °F 26 °F (1964)
Degree Days  
Heating Degree Days 24    
Moisture  
Dew Point 31 °F    
Average Humidity 72    
Maximum Humidity 96    
Minimum Humidity 37    
Precipitation  
Precipitation 0.00 in - - ()
Sea Level Pressure  
Sea Level Pressure 30.21 in    
Wind  
Wind Speed 1 mph (NE)    
Max Wind Speed 8 mph    
Max Gust Speed -    
Visibility 10 miles    
Events      
Averages and records for this station are not official NWS values.
T = Trace of Precipitation, MM = Missing Value Source: NWS Daily Summary

Daily Weather History Graph

Daily Weather History Graph

Search for Another Location

Airport or City:

Trip Planner

Search our weather history database for the weather conditions in past years. The results will help you decide how hot, cold, wet, or windy it might be!

Date:

Astronomy

Mar. 24, 2013 Rise Set
Actual Time 7:06 AM PDT 7:31 PM PDT
Civil Twilight 6:36 AM PDT 8:02 PM PDT
Nautical Twilight 6:00 AM PDT 8:38 PM PDT
Astronomical Twilight 5:22 AM PDT 9:16 PM PDT
Moon 4:57 PM PDT (3/24) 5:29 AM PDT (3/24)
Length of Visible Light 13h 25m
Length of Day
12h 24m
Waxing Gibbous, 92% of the Moon is Illuminated
Mar 24
Waxing Gibbous
Mar 27
Full
Apr 2
Last Quarter
Apr 10
New
Apr 18
First Quarter

Hourly Weather History & Observations

Time (PDT) Temp. Windchill Dew Point Humidity Pressure Visibility Wind Dir Wind Speed Gust Speed Precip Events Conditions
12:53 AM 35.1 °F - 32.0 °F 89% 30.28 in 10.0 mi Calm Calm - N/A   Overcast
1:53 AM 32.0 °F - 30.9 °F 96% 30.29 in 10.0 mi Calm Calm - N/A   Scattered Clouds
2:53 AM 32.0 °F - 30.9 °F 96% 30.29 in 10.0 mi Calm Calm - N/A   Clear
3:53 AM 32.0 °F - 30.9 °F 96% 30.28 in 10.0 mi Calm Calm - N/A   Clear
4:53 AM 30.9 °F - 30.0 °F 96% 30.27 in 10.0 mi Calm Calm - N/A   Clear
5:53 AM 33.1 °F - 30.9 °F 92% 30.27 in 10.0 mi Calm Calm - N/A   Mostly Cloudy
6:53 AM 33.1 °F - 30.9 °F 92% 30.27 in 10.0 mi Calm Calm - N/A   Scattered Clouds
7:53 AM 34.0 °F - 33.1 °F 96% 30.27 in 10.0 mi Calm Calm - N/A   Overcast
8:53 AM 37.0 °F 34.5 °F 34.0 °F 89% 30.26 in 10.0 mi NNE 3.5 mph - N/A   Partly Cloudy
9:53 AM 39.0 °F - 34.0 °F 82% 30.26 in 10.0 mi Calm Calm - N/A   Overcast
10:53 AM 42.1 °F 39.2 °F 33.1 °F 70% 30.26 in 10.0 mi NE 4.6 mph - N/A   Overcast
11:53 AM 45.0 °F 43.5 °F 32.0 °F 60% 30.24 in 10.0 mi Variable 3.5 mph - N/A   Mostly Cloudy
12:53 PM 46.9 °F - 28.9 °F 50% 30.23 in 10.0 mi East 5.8 mph - N/A   Overcast
1:53 PM 48.9 °F - 27.0 °F 43% 30.22 in 10.0 mi Calm Calm - N/A   Overcast
2:53 PM 51.1 °F - 28.0 °F 41% 30.20 in 10.0 mi ENE 5.8 mph - N/A   Overcast
3:53 PM 52.0 °F - 28.0 °F 40% 30.18 in 10.0 mi ESE 8.1 mph - N/A   Overcast
4:53 PM 53.1 °F - 27.0 °F 37% 30.16 in 10.0 mi Calm Calm - N/A   Overcast
5:53 PM 51.1 °F - 28.9 °F 43% 30.15 in 10.0 mi North 8.1 mph - N/A   Overcast
6:53 PM 50.0 °F - 30.0 °F 46% 30.13 in 10.0 mi North 6.9 mph - N/A   Overcast
7:53 PM 46.9 °F - 30.0 °F 52% 30.12 in 10.0 mi North 4.6 mph - N/A   Overcast
8:53 PM 46.0 °F 44.8 °F 32.0 °F 58% 30.12 in 10.0 mi North 3.5 mph - N/A   Overcast
9:53 PM 39.0 °F - 33.1 °F 79% 30.12 in 10.0 mi Calm Calm - N/A   Partly Cloudy
10:53 PM 34.0 °F - 32.0 °F 92% 30.12 in 10.0 mi Calm Calm - N/A   Clear
11:53 PM 34.0 °F - 32.0 °F 92% 30.12 in 10.0 mi Calm Calm - N/A   Mostly Cloudy